[[{"header":{"parameterUnit":"m.s-1","parameterCategory":1,"la1":30.2991,"la2":30.254,"lo1":-89.0895,"lo2":-89.0444,"dy":0.0017,"dx":0.0017,"nx":28,"ny":28,"refTime":"2025-12-26T09:00:00:Z","depth":0,"parameterNumber":2,"parameterNumberName":"U-component_of_WINDS"},"data":[0,0,0,0,0,0,0,0,0,0,0,0,0,0,0,0,0,0,0,0,0,0,0,0,0,0,0,0,0,0,0,0,0,0,0,0,0,0,0,0,0,0,0,0,0,0,0,0,0,0,0,0,0,0,0,0,0,0,1.3747,1.3747,0,1.3801,1.3801,1.3802,1.3782,1.3781,1.3779,1.3778,1.3837,1.384,1.3843,0,0,0,0,0,0,0,0,0,0,0,0,0,1.363,1.3632,1.3747,1.3747,1.3748,1.3801,1.3801,1.3802,1.3782,1.3781,1.3779,1.3778,1.3836,1.3839,1.3843,0,0,0,0,0,0,0,0,0,0,0,0,0,1.3682,1.3633,1.3747,1.3744,1.3745,1.38,1.3801,1.3802,1.3782,1.3781,1.3779,1.3777,1.3835,1.3839,1.3843,1.3906,0,0,1.3856,1.3857,0,0,0,0,0,0,0,0,1.3679,1.3687,1.3744,1.3745,1.3745,1.3783,1.3782,1.3837,1.3783,1.3768,1.3778,1.3776,1.3821,1.3826,1.384,1.3908,1.3911,1.3856,1.3859,1.386,1.3861,0,0,0,0,0,0,0,1.3676,1.3684,1.3768,1.3745,1.3746,1.3742,1.3747,1.3792,1.3804,1.3769,1.3768,1.3774,1.3821,1.3836,1.3841,1.3912,1.3856,1.386,1.3862,1.3864,1.4034,1.4036,0,0,0,0,0,0,1.3671,1.3681,1.3767,1.377,1.3707,1.3745,1.3751,1.3773,1.3804,1.3807,1.3776,1.3773,1.383,1.3837,1.3843,1.3918,1.386,1.3864,1.3866,1.4032,1.4034,1.4036,0,0,0,0,0,0,1.3669,1.3679,1.3764,1.3725,1.3736,1.3749,1.3773,1.3775,1.379,1.3809,1.3811,1.3789,1.3829,1.3838,1.389,1.392,1.3866,1.387,1.4029,1.4032,1.4035,1.4068,0,0,0,0,0,0,1.3666,1.3678,1.3701,1.3726,1.3738,1.3809,1.3775,1.3777,1.3797,1.3794,1.3822,1.3825,1.3828,1.3884,1.3894,1.3925,1.3873,1.4026,1.4031,1.4034,1.4065,1.4072,1.4079,0,0,0,0,0,1.3662,1.3709,1.3703,1.3713,1.3767,1.3811,1.3818,1.3819,1.3799,1.3823,1.3835,1.3824,1.3915,1.3889,1.3901,1.3933,1.4025,1.4029,1.4034,1.4062,1.4071,1.4079,0,0,0,0,0,0,1.369,1.3713,1.3705,1.3762,1.3785,1.3807,1.3837,1.3829,1.3859,1.3855,1.3857,1.3864,1.3917,1.393,1.3901,1.3995,1.3967,1.3974,1.3984,1.3993,1.4,1.3996,1.3876,0,0,0,0,0,1.3702,1.3735,1.3754,1.3802,1.3814,1.3824,1.3843,1.3842,1.3866,1.3875,1.3891,1.3916,1.395,1.3972,1.4005,1.4067,1.4073,1.4094,1.4101,1.4107,1.4113,1.4147,1.4157,1.4052,1.4051,1.4051,0,0,1.3729,1.3746,1.3766,1.3808,1.3825,1.386,1.3832,1.387,1.3896,1.3882,1.3931,1.3944,1.3972,1.4029,1.4055,1.4041,1.4144,1.4113,1.4117,1.412,1.4153,1.4163,1.4171,1.4055,1.4054,1.4054,0,0,1.3795,1.3811,1.3853,1.387,1.3896,1.3903,1.3913,1.3937,1.3944,1.3994,1.3984,1.4016,1.4074,1.4094,1.4112,1.4185,1.4177,1.4196,1.4233,1.4266,1.4274,1.4281,1.4308,1.4317,1.4202,1.4202,1.4202,0,1.3826,1.3876,1.3876,1.3914,1.3933,1.3921,1.3964,1.3981,1.4017,1.4031,1.4015,1.4088,1.4106,1.4168,1.4185,1.42,1.4212,1.4193,1.4273,1.428,1.4287,1.4312,1.4322,1.4204,1.4204,1.4204,1.4204,0,1.3912,1.3948,1.3979,1.4012,1.4034,1.4075,1.4082,1.4105,1.4103,1.4111,1.4162,1.4183,1.4219,1.4233,1.4232,1.4295,1.4286,1.4271,1.4243,1.4299,1.4323,1.4332,1.4208,1.4207,1.4206,1.4206,0,0,1.3998,1.403,1.4041,1.4056,1.4083,1.4112,1.4152,1.4186,1.4206,1.4231,1.4266,1.4315,1.4302,1.4322,1.4323,1.4352,1.4409,1.4334,1.4334,1.4347,1.448,1.449,1.4501,1.4403,1.4405,1.4406,1.4477,0,1.4066,1.4135,1.4136,1.4201,1.4234,1.4222,1.4258,1.4279,1.4288,1.4318,1.4329,1.4364,1.4343,1.4355,1.4383,1.4396,1.4436,1.4391,1.4436,1.4438,1.4429,1.4514,1.4525,1.4591,1.4487,1.4488,1.4489,0,1.4155,1.4181,1.4248,1.4271,1.4285,1.4317,1.4348,1.4377,1.4401,1.4406,1.4428,1.4424,1.4467,1.4437,1.4496,1.4465,1.4484,1.4493,1.4496,1.45,1.4467,1.452,1.4612,1.4622,1.4504,1.4503,1.4502,0,1.421,1.4263,1.431,1.4323,1.435,1.4373,1.4386,1.4408,1.4429,1.4457,1.447,1.4503,1.4521,1.4547,1.4553,1.4531,1.4612,1.4583,1.4617,1.4617,1.4635,1.4634,1.4731,1.4647,1.4647,1.4647,1.4647,0,1.4286,1.4327,1.4335,1.4364,1.441,1.4411,1.4458,1.4469,1.4489,1.4521,1.4514,1.4544,1.4549,1.4581,1.4586,1.4634,1.4643,1.4648,1.4649,1.4648,1.4648,1.4661,1.4656,1.4649,1.4649,1.4648,1.4648,0,1.4355,1.4362,1.4412,1.4434,1.444,1.4474,1.4493,1.4521,1.4529,1.4569,1.4579,1.4592,1.4629,1.4637,1.4681,1.4684,1.4741,1.4738,1.4733,1.4732,1.4766,1.4763,1.4875,1.489,1.4797,1.4797,1.4798,0,1.4403,1.4434,1.4459,1.4479,1.4493,1.4525,1.4546,1.4549,1.457,1.46,1.4625,1.4661,1.469,1.475,1.4764,1.4798,1.4795,1.4832,1.48,1.4799,1.4795,1.4793,1.4797,1.4838,1.4839,1.484,1.484,0,1.4487,1.4488,1.4518,1.4548,1.4572,1.4597,1.462,1.4638,1.4644,1.4669,1.4706,1.4728,1.4772,1.4808,1.4842,1.4857,1.485,1.485,1.486,1.486,1.4856,1.4858,1.4749,1.4848,1.4847,1.4847,1.4846,1.4846,1.4547,1.4574,1.4596,1.4629,1.4646,1.4668,1.4695,1.4707,1.4737,1.4773,1.4773,1.4813,1.4837,1.4882,1.4898,1.4931,1.492,1.4934,1.4937,1.4941,1.4944,1.485,1.4937,1.4937,1.4937,1.4937,1.4937,0,1.463,1.4643,1.4674,1.4706,1.4732,1.4722,1.4747,1.477,1.4805,1.4828,1.4856,1.4899,1.4934,1.495,1.4985,1.5008,1.5006,1.5017,1.5015,1.5019,1.4952,1.494,1.5018,1.5018,1.5018,1.5018,1.5018,1.5018,1.4677,1.4722,1.4727,1.4782,1.4795,1.4833,1.4849,1.4869,1.4887,1.4935,1.4963,1.4973,1.4994,1.503,1.5062,1.5066,1.5079,1.5092,1.5094,1.5032,1.5023,1.5015,1.5004,1.5094,1.5095,1.5158,1.5159,1.5159]},{"header":{"parameterUnit":"m.s-1","parameterCategory":1,"la1":30.2991,"la2":30.254,"lo1":-89.0895,"lo2":-89.0444,"dy":0.0017,"dx":0.0017,"nx":28,"ny":28,"refTime":"2025-12-26T09:00:00:Z","depth":0,"parameterNumber":3,"parameterNumberName":"V-component_of_WINDS"},"data":[0,0,0,0,0,0,0,0,0,0,0,0,0,0,0,0,0,0,0,0,0,0,0,0,0,0,0,0,0,0,0,0,0,0,0,0,0,0,0,0,0,0,0,0,0,0,0,0,0,0,0,0,0,0,0,0,0,0,2.3012,2.3012,0,2.302,2.302,2.302,2.298,2.2979,2.2978,2.2977,2.2986,2.2987,2.2988,0,0,0,0,0,0,0,0,0,0,0,0,0,2.2962,2.2963,2.3012,2.3012,2.3012,2.302,2.302,2.302,2.2981,2.2979,2.2978,2.2976,2.2985,2.2987,2.2988,0,0,0,0,0,0,0,0,0,0,0,0,0,2.2979,2.2964,2.3012,2.2993,2.2992,2.302,2.302,2.302,2.2981,2.2979,2.2977,2.2976,2.2985,2.2987,2.2988,2.3035,0,0,2.2994,2.2995,0,0,0,0,0,0,0,0,2.2978,2.298,2.2996,2.2994,2.2993,2.2997,2.3006,2.3025,2.2981,2.2985,2.2977,2.2975,2.2991,2.2992,2.2998,2.3036,2.3036,2.2995,2.2996,2.2997,2.2997,0,0,0,0,0,0,0,2.2977,2.298,2.3015,2.2996,2.2994,2.2985,2.2985,2.3009,2.2998,2.2984,2.2982,2.2983,2.299,2.2996,2.2998,2.3036,2.2995,2.2996,2.2998,2.2998,2.3115,2.3117,0,0,0,0,0,0,2.2978,2.2979,2.3015,2.3015,2.2981,2.2987,2.2987,2.2998,2.2997,2.2995,2.2985,2.2981,2.2993,2.2995,2.2998,2.3054,2.2997,2.2998,2.3,2.3113,2.3115,2.3117,0,0,0,0,0,0,2.2977,2.2981,2.3014,2.2996,2.3,2.299,2.3002,2.2999,2.3005,2.2997,2.2995,2.2993,2.2992,2.2995,2.3027,2.3054,2.2999,2.3001,2.3111,2.3114,2.3116,2.3166,0,0,0,0,0,0,2.2976,2.2981,2.2999,2.2997,2.3001,2.3043,2.3003,2.3,2.3008,2.3004,2.3005,2.3003,2.2991,2.3024,2.3029,2.3055,2.3003,2.3108,2.3112,2.3115,2.3162,2.317,2.3177,0,0,0,0,0,2.2974,2.3012,2.3,2.3005,2.3023,2.3045,2.3047,2.3032,2.3011,2.3028,2.3024,2.3003,2.305,2.3027,2.3032,2.306,2.3106,2.3111,2.3115,2.3159,2.3169,2.3177,0,0,0,0,0,0,2.3017,2.3012,2.2998,2.3037,2.3042,2.3038,2.306,2.3043,2.3055,2.305,2.3031,2.3032,2.3067,2.3066,2.3042,2.3106,2.3074,2.308,2.3106,2.3115,2.3123,2.3123,2.3004,0,0,0,0,0,2.3031,2.305,2.3044,2.3078,2.3082,2.3071,2.308,2.3068,2.3072,2.3074,2.3072,2.3077,2.3093,2.3104,2.3118,2.3161,2.3162,2.3183,2.319,2.3197,2.3202,2.3227,2.3237,2.3131,2.3131,2.3131,0,0,2.3061,2.306,2.3072,2.3087,2.309,2.311,2.3073,2.3095,2.311,2.3077,2.3108,2.3106,2.3111,2.3149,2.3166,2.315,2.3231,2.3202,2.3207,2.3209,2.3232,2.3242,2.3251,2.3134,2.3134,2.3133,0,0,2.3124,2.3125,2.3155,2.3158,2.3162,2.3155,2.3162,2.3161,2.3159,2.3189,2.3166,2.3183,2.321,2.3215,2.3221,2.3287,2.3269,2.3292,2.3333,2.3357,2.3366,2.3373,2.3398,2.3407,2.3297,2.3298,2.3298,0,2.316,2.3189,2.3172,2.3197,2.3204,2.3176,2.3207,2.3211,2.3219,2.3226,2.3207,2.3242,2.3243,2.3282,2.3299,2.3304,2.3312,2.3293,2.3366,2.3373,2.3379,2.3404,2.3413,2.3301,2.33,2.33,2.33,0,2.3234,2.3255,2.3278,2.3288,2.3298,2.3325,2.3313,2.3325,2.3313,2.3307,2.3339,2.3339,2.3353,2.3361,2.3349,2.34,2.339,2.3369,2.3337,2.3393,2.3415,2.3424,2.3305,2.3304,2.3303,2.3302,0,0,2.3326,2.3326,2.3335,2.334,2.3343,2.3359,2.3385,2.3399,2.3411,2.3418,2.344,2.3464,2.3445,2.3452,2.344,2.3461,2.3515,2.3437,2.3437,2.3453,2.3573,2.3591,2.3601,2.3503,2.3504,2.3506,2.3574,0,2.339,2.3435,2.3421,2.3467,2.3486,2.346,2.3483,2.3488,2.3483,2.3499,2.3494,2.3513,2.3485,2.3489,2.3509,2.3505,2.354,2.3499,2.3525,2.3526,2.3526,2.3613,2.3631,2.3695,2.3582,2.3583,2.3584,0,2.347,2.3481,2.353,2.3531,2.3538,2.3559,2.3572,2.3587,2.3592,2.3587,2.3595,2.3579,2.3606,2.3572,2.3609,2.3582,2.3591,2.3591,2.3593,2.3596,2.356,2.362,2.3715,2.3725,2.3598,2.3597,2.3596,0,2.3535,2.3561,2.3594,2.3599,2.36,2.3616,2.3617,2.362,2.363,2.3641,2.3647,2.366,2.3668,2.3679,2.3668,2.3644,2.3707,2.3672,2.3705,2.3705,2.3721,2.372,2.382,2.3724,2.3724,2.3723,2.3723,0,2.3609,2.364,2.3623,2.3644,2.3678,2.3661,2.3695,2.3694,2.3697,2.3717,2.3694,2.3713,2.3695,2.3713,2.3704,2.3737,2.374,2.3738,2.3735,2.3741,2.3741,2.3748,2.3744,2.3726,2.3725,2.3725,2.3724,0,2.3687,2.3677,2.3711,2.371,2.371,2.3736,2.3735,2.3754,2.3748,2.3773,2.3778,2.3769,2.3789,2.3778,2.3798,2.3792,2.3835,2.3825,2.3834,2.3832,2.3866,2.3864,2.3975,2.399,2.3882,2.3883,2.3884,0,2.3736,2.3759,2.3761,2.3773,2.3776,2.3795,2.3805,2.3789,2.3801,2.3809,2.3827,2.3845,2.3859,2.3891,2.3887,2.3902,2.3894,2.3932,2.3896,2.3902,2.3897,2.3897,2.39,2.394,2.3941,2.3942,2.3943,0,2.3824,2.3818,2.3834,2.3848,2.3861,2.3872,2.388,2.3891,2.3876,2.389,2.391,2.3921,2.3942,2.396,2.3974,2.3975,2.3957,2.3954,2.3963,2.397,2.3974,2.3974,2.3855,2.3952,2.3951,2.395,2.395,2.3949,2.389,2.391,2.3915,2.3933,2.3938,2.3947,2.3966,2.3962,2.3979,2.3995,2.3984,2.4009,2.4014,2.403,2.4034,2.4053,2.4038,2.405,2.4053,2.4057,2.4063,2.397,2.4055,2.4055,2.4054,2.4054,2.4054,0,2.3979,2.398,2.3998,2.4011,2.4026,2.4007,2.4016,2.403,2.4051,2.4058,2.4072,2.4096,2.4114,2.4111,2.4127,2.4143,2.4135,2.4148,2.4148,2.4149,2.4074,2.4066,2.4154,2.4154,2.4154,2.4154,2.4154,2.4154,2.4027,2.406,2.4055,2.4092,2.4093,2.4117,2.4124,2.4132,2.4137,2.4165,2.418,2.4178,2.4181,2.4198,2.4214,2.4212,2.422,2.4237,2.4232,2.4163,2.4154,2.4144,2.4137,2.4238,2.4238,2.4305,2.4306,2.4306]}]]